Location: Olomouc
(49.5830°N, 17.2500°E)
Time: 23:47:27
(UTC+01:00)

ISS - Visible Passes

Search period start: 02 March 2024 00:00
Search period end: 12 March 2024 00:00
Orbit: 414 x 422 km, 51.6° (Epoch: 02 March)

Date Brightness Start Highest point End Pass type
(mag) Time Alt. Az. Time Alt. Az. Time Alt. Az.
02 Mar -3.7 04:35:51 65° NW 04:36:11 73° NNE 04:39:35 10° E visible
03 Mar -1.6 03:49:49 27° E 03:49:49 27° E 03:51:33 10° E visible
03 Mar -3.4 05:22:45 19° W 05:24:58 51° SSW 05:28:16 10° SE visible
04 Mar -3.9 04:36:46 67° WSW 04:37:01 72° SSW 04:40:23 10° ESE visible
05 Mar -1.7 03:50:50 25° ESE 03:50:50 25° ESE 03:52:24 10° ESE visible
05 Mar -2.5 05:23:46 17° W 05:25:31 25° SW 05:28:22 10° SSE visible
06 Mar -2.9 04:37:55 35° SSW 04:37:55 35° SSW 04:40:44 10° SE visible
07 Mar -1.2 03:52:10 15° SE 03:52:10 15° SE 03:52:54 10° SE visible
07 Mar -1.6 05:25:08 11° WSW 05:25:47 12° SW 05:27:01 10° SSW visible
08 Mar -1.4 04:39:31 13° S 04:39:31 13° S 04:40:14 10° S visible
